,,,PA_Meas_PMT16A,,PR_Meas_QMR101_102,,RH_Meas_QMH101,,SR_Meas_QMS101,,TA_Meas_QMH101,,GenWind,,GenWind,
date,time,status,PA,status,PR,status,RH,status,SR,status,TA,status,DirAvg,status,SpdAvg,
2008-06-05, 00:00:04,VALID,1003.7,VALID,0,VALID,90.6387,VALID,0.100563,VALID,24.8132,VALID,16,VALID,0,
2008-06-05, 00:01:04,VALID,1003.69,VALID,0,VALID,90.8066,VALID,0,VALID,24.7548,VALID,16,VALID,0,
2008-06-05, 00:02:04,VALID,1003.72,VALID,0,VALID,90.9668,VALID,0.100563,VALID,24.7159,VALID,16,VALID,0.474609,
2008-06-05, 00:03:04,VALID,1003.7,VALID,0,VALID,91.1651,VALID,0,VALID,24.6769,VALID,16,VALID,0.120312,
2008-06-05, 00:04:04,VALID,1003.69,VALID,0,VALID,91.4321,VALID,0.100563,VALID,24.6593,VALID,16,VALID,0.272656,
2008-06-05, 00:05:04,VALID,1003.69,VALID,0,VALID,91.6152,VALID,0,VALID,24.6185,VALID,16,VALID,0.129297,
2008-06-05, 00:06:04,VALID,1003.69,VALID,0,VALID,91.7373,VALID,0,VALID,24.6185,VALID,16,VALID,0.3,
2008-06-05, 00:07:04,VALID,1003.69,VALID,0,VALID,91.8059,VALID,0.100563,VALID,24.638,VALID,16,VALID,0.040625,
2008-06-05, 00:08:04,VALID,1003.72,VALID,0,VALID,91.8288,VALID,0.100563,VALID,24.638,VALID,16,VALID,0,
2008-06-05, 00:09:04,VALID,1003.69,VALID,0,VALID,91.8822,VALID,0.100563,VALID,24.6185,VALID,16,VALID,0,
2008-06-05, 00:10:04,VALID,1003.7,VALID,0,VALID,91.9356,VALID,0.100563,VALID,24.6204,VALID,16,VALID,0,
2008-06-05, 00:11:04,VALID,1003.71,VALID,0,VALID,92.0424,VALID,0.100563,VALID,24.5796,VALID,16,VALID,0,
2008-06-05, 00:12:04,VALID,1003.69,VALID,0,VALID,92.0806,VALID,0.100563,VALID,24.599,VALID,16,VALID,0,
2008-06-05, 00:13:04,VALID,1003.69,VALID,0,VALID,92.1187,VALID,0.100563,VALID,24.599,VALID,16,VALID,0,
2008-06-05, 00:14:04,VALID,1003.72,VALID,0,VALID,92.1264,VALID,0,VALID,24.5601,VALID,16,VALID,0,
2008-06-05, 00:15:04,VALID,1003.71,VALID,0,VALID,92.1874,VALID,0,VALID,24.5814,VALID,38,VALID,0.0195313,
2008-06-05, 00:16:04,VALID,1003.7,VALID,0,VALID,92.2484,VALID,0,VALID,24.5814,VALID,38,VALID,0,
2008-06-05, 00:17:04,VALID,1003.68,VALID,0,VALID,92.2713,VALID,0,VALID,24.5406,VALID,38,VALID,0,
2008-06-05, 00:18:04,VALID,1003.68,VALID,0,VALID,92.3247,VALID,0,VALID,24.5406,VALID,38,VALID,0,
2008-06-05, 00:19:04,VALID,1003.63,VALID,0,VALID,92.3629,VALID,0,VALID,24.5212,VALID,38,VALID,0,
2008-06-05, 00:20:04,VALID,1003.62,VALID,0,VALID,92.4239,VALID,0,VALID,24.5017,VALID,38,VALID,0,
2008-06-05, 00:21:04,VALID,1003.6,VALID,0,VALID,92.5078,VALID,0,VALID,24.4822,VALID,38,VALID,0,
2008-06-05, 00:22:04,VALID,1003.59,VALID,0,VALID,92.5612,VALID,0.100563,VALID,24.4822,VALID,38,VALID,0,
2008-06-05, 00:23:04,VALID,1003.56,VALID,0,VALID,92.5765,VALID,0,VALID,24.4433,VALID,38,VALID,0,
2008-06-05, 00:24:04,VALID,1003.57,VALID,0,VALID,92.7214,VALID,0.100563,VALID,24.4433,VALID,38,VALID,0,
2008-06-05, 00:25:04,VALID,1003.53,VALID,0,VALID,92.7596,VALID,0,VALID,24.4238,VALID,38,VALID,0.0171875,
2008-06-05, 00:26:04,VALID,1003.52,VALID,0,VALID,92.8892,VALID,0,VALID,24.4257,VALID,38,VALID,0.364844,
2008-06-05, 00:27:04,VALID,1003.5,VALID,0,VALID,93.0189,VALID,0,VALID,24.4433,VALID,38,VALID,0.635156,
2008-06-05, 00:28:04,VALID,1003.52,VALID,0,VALID,93.0266,VALID,0,VALID,24.4822,VALID,50,VALID,0.533203,
2008-06-05, 00:29:04,VALID,1003.5,VALID,0,VALID,92.8664,VALID,0,VALID,24.4841,VALID,50,VALID,0.307031,
2008-06-05, 00:30:04,VALID,1003.55,VALID,0,VALID,92.813,VALID,0,VALID,24.523,VALID,69,VALID,0.442187,
2008-06-05, 00:31:04,VALID,1003.49,VALID,0,VALID,92.7672,VALID,0,VALID,24.5814,VALID,89,VALID,0.475781,
2008-06-05, 00:32:04,VALID,1003.5,VALID,0,VALID,92.5078,VALID,0,VALID,24.6204,VALID,89,VALID,0.374219,
2008-06-05, 00:33:04,VALID,1003.5,VALID,0,VALID,92.1645,VALID,0,VALID,24.6788,VALID,94,VALID,0.883203,
2008-06-05, 00:34:04,VALID,1003.5,VALID,0,VALID,91.7373,VALID,0,VALID,24.7956,VALID,47,VALID,0.570313,
2008-06-05, 00:35:04,VALID,1003.5,VALID,0,VALID,91.333,VALID,0,VALID,24.854,VALID,47,VALID,0.320703,
2008-06-05, 00:36:04,VALID,1003.47,VALID,0,VALID,90.9897,VALID,0,VALID,24.893,VALID,67,VALID,0.388672,
2008-06-05, 00:37:04,VALID,1003.46,VALID,0,VALID,90.7837,VALID,0,VALID,24.9125,VALID,78,VALID,0.574219,
2008-06-05, 00:38:04,VALID,1003.46,VALID,0,VALID,90.1047,VALID,0,VALID,25.0488,VALID,81,VALID,0.848437,
2008-06-05, 00:39:04,VALID,1003.45,VALID,0,VALID,89.4563,VALID,0,VALID,25.1656,VALID,110,VALID,1.05664,
2008-06-05, 00:40:04,VALID,1003.44,VALID,0,VALID,89.1587,VALID,0,VALID,25.2435,VALID,109,VALID,0.414063,
2008-06-05, 00:41:04,VALID,1003.45,VALID,0,VALID,88.907,VALID,0,VALID,25.2435,VALID,100,VALID,0.527344,
2008-06-05, 00:42:04,VALID,1003.41,VALID,0,VALID,88.701,VALID,0,VALID,25.263,VALID,55,VALID,0.438672,
2008-06-05, 00:43:04,VALID,1003.4,VALID,0,VALID,88.5942,VALID,0,VALID,25.263,VALID,56,VALID,0.248828,
2008-06-05, 00:44:04,VALID,1003.36,VALID,0,VALID,88.5255,VALID,0,VALID,25.2435,VALID,56,VALID,0.223828,
2008-06-05, 00:45:04,VALID,1003.34,VALID,0,VALID,88.4798,VALID,0,VALID,25.2825,VALID,90,VALID,0.255078,
2008-06-05, 00:46:04,VALID,1003.35,VALID,0,VALID,88.4645,VALID,0,VALID,25.3019,VALID,124,VALID,0.550781,
2008-06-05, 00:47:04,VALID,1003.33,VALID,0,VALID,88.2814,VALID,0,VALID,25.3019,VALID,109,VALID,0.930859,
2008-06-05, 00:48:04,VALID,1003.3,VALID,0,VALID,87.961,VALID,0,VALID,25.3604,VALID,94,VALID,0.791016,
2008-06-05, 00:49:04,VALID,1003.28,VALID,0,VALID,87.7016,VALID,0,VALID,25.3993,VALID,101,VALID,0.541797,
2008-06-05, 00:50:04,VALID,1003.27,VALID,0,VALID,87.4499,VALID,0,VALID,25.4577,VALID,71,VALID,0.676953,
2008-06-05, 00:51:04,VALID,1003.23,VALID,0,VALID,87.2286,VALID,0,VALID,25.4772,VALID,81,VALID,0.674219,
2008-06-05, 00:52:04,VALID,1003.18,VALID,0,VALID,87.0532,VALID,0,VALID,25.5162,VALID,112,VALID,0.869531,
2008-06-05, 00:53:04,VALID,1003.17,VALID,0,VALID,86.7785,VALID,0,VALID,25.5746,VALID,105,VALID,0.535547,
2008-06-05, 00:54:04,VALID,1003.15,VALID,0,VALID,86.7251,VALID,0,VALID,25.6136,VALID,105,VALID,0.612109,
2008-06-05, 00:55:04,VALID,1003.13,VALID,0,VALID,86.7022,VALID,0,VALID,25.5941,VALID,103,VALID,0.30625,
2008-06-05, 00:56:04,VALID,1003.14,VALID,0,VALID,86.7861,VALID,0,VALID,25.5551,VALID,103,VALID,0.470703,
2008-06-05, 00:57:04,VALID,1003.11,VALID,0,VALID,86.8395,VALID,0,VALID,25.5571,VALID,103,VALID,0.445313,
2008-06-05, 00:58:04,VALID,1003.08,VALID,0,VALID,86.954,VALID,0,VALID,25.5181,VALID,103,VALID,0.388281,
2008-06-05, 00:59:04,VALID,1003.1,VALID,0,VALID,87.0303,VALID,0,VALID,25.4967,VALID,103,VALID,0.176953,
2008-06-05, 01:00:04,VALID,1003.09,VALID,0,VALID,87.1752,VALID,0,VALID,25.4558,VALID,103,VALID,0.226953,
2008-06-05, 01:01:04,VALID,1003.06,VALID,0,VALID,87.3049,VALID,0,VALID,25.4169,VALID,100,VALID,0.25625,
2008-06-05, 01:02:04,VALID,1003.07,VALID,0,VALID,87.4193,VALID,0,VALID,25.3993,VALID,92,VALID,0.382422,
2008-06-05, 01:03:04,VALID,1003.04,VALID,0,VALID,87.694,VALID,0.100563,VALID,25.3584,VALID,53,VALID,0.543359,
2008-06-05, 01:04:04,VALID,1003.03,VALID,0,VALID,88.0831,VALID,0,VALID,25.3,VALID,32,VALID,0.533984,
2008-06-05, 01:05:04,VALID,1003.02,VALID,0,VALID,88.495,VALID,0,VALID,25.2416,VALID,32,VALID,0.0890625,
2008-06-05, 01:06:04,VALID,1003.01,VALID,0,VALID,88.6323,VALID,0,VALID,25.2027,VALID,32,VALID,0,
2008-06-05, 01:07:04,VALID,1003.03,VALID,0,VALID,88.8002,VALID,0.100563,VALID,25.1637,VALID,32,VALID,0,
2008-06-05, 01:08:04,VALID,1003.04,VALID,0,VALID,89.0214,VALID,0,VALID,25.1248,VALID,32,VALID,0.147656,
2008-06-05, 01:09:04,VALID,1003.01,VALID,0,VALID,89.296,VALID,0.100563,VALID,25.0663,VALID,32,VALID,0.241797,
2008-06-05, 01:10:04,VALID,1002.99,VALID,0,VALID,89.5325,VALID,0,VALID,25.0293,VALID,32,VALID,0.378516,
2008-06-05, 01:11:04,VALID,1003,VALID,0,VALID,89.7538,VALID,0,VALID,24.9495,VALID,32,VALID,0.426562,
2008-06-05, 01:12:04,VALID,1003,VALID,0,VALID,89.9674,VALID,0,VALID,24.8911,VALID,32,VALID,0.315234,
2008-06-05, 01:13:04,VALID,1003.01,VALID,0,VALID,90.2115,VALID,0,VALID,24.8327,VALID,32,VALID,0.240234,
2008-06-05, 01:14:04,VALID,1002.99,VALID,0,VALID,90.4785,VALID,0,VALID,24.7761,VALID,32,VALID,0.298828,
2008-06-05, 01:15:04,VALID,1002.99,VALID,0,VALID,90.715,VALID,0,VALID,24.7372,VALID,32,VALID,0.418359,
2008-06-05, 01:16:04,VALID,1002.99,VALID,0,VALID,90.9439,VALID,0,VALID,24.6807,VALID,32,VALID,0.520703,
2008-06-05, 01:17:04,VALID,1002.95,VALID,0,VALID,91.188,VALID,0,VALID,24.6222,VALID,32,VALID,0.502734,
2008-06-05, 01:18:04,VALID,1002.97,VALID,0,VALID,91.4703,VALID,0,VALID,24.562,VALID,32,VALID,0.444922,
2008-06-05, 01:19:04,VALID,1002.96,VALID,0,VALID,91.6457,VALID,0,VALID,24.523,VALID,29,VALID,0.532422,
2008-06-05, 01:20:04,VALID,1002.94,VALID,0,VALID,91.9128,VALID,0,VALID,24.4646,VALID,17,VALID,0.377344,
2008-06-05, 01:21:04,VALID,1002.95,VALID,0,VALID,91.9967,VALID,0,VALID,24.4451,VALID,17,VALID,0.526953,
2008-06-05, 01:22:04,VALID,1002.94,VALID,0,VALID,92.0958,VALID,0,VALID,24.4062,VALID,17,VALID,0.438672,
2008-06-05, 01:23:04,VALID,1002.95,VALID,0,VALID,92.2789,VALID,0,VALID,24.3673,VALID,17,VALID,0.400781,
2008-06-05, 01:24:04,VALID,1002.93,VALID,0,VALID,92.4925,VALID,0,VALID,24.3691,VALID,17,VALID,0,
2008-06-05, 01:25:04,VALID,1002.92,VALID,0,VALID,92.5993,VALID,0,VALID,24.3088,VALID,17,VALID,0,
2008-06-05, 01:26:04,VALID,1002.89,VALID,0,VALID,92.6909,VALID,0,VALID,24.3088,VALID,17,VALID,0,
2008-06-05, 01:27:04,VALID,1002.89,VALID,0,VALID,92.8587,VALID,0,VALID,24.2699,VALID,17,VALID,0,
2008-06-05, 01:28:04,VALID,1002.87,VALID,0,VALID,92.9655,VALID,0,VALID,24.2486,VALID,17,VALID,0,
2008-06-05, 01:29:04,VALID,1002.87,VALID,0,VALID,93.1486,VALID,0,VALID,24.2894,VALID,17,VALID,0.224609,
2008-06-05, 01:30:04,VALID,1002.85,VALID,0,VALID,93.1791,VALID,0,VALID,24.3088,VALID,18,VALID,0.0210938,
2008-06-05, 01:31:04,VALID,1002.83,VALID,0,VALID,93.202,VALID,0,VALID,24.3088,VALID,18,VALID,0.333594,
2008-06-05, 01:32:04,VALID,1002.84,VALID,0,VALID,93.2783,VALID,0,VALID,24.3283,VALID,19,VALID,0.326172,
2008-06-05, 01:33:04,VALID,1002.82,VALID,0,VALID,93.2631,VALID,0,VALID,24.3673,VALID,81,VALID,0.385156,
2008-06-05, 01:34:04,VALID,1002.81,VALID,0,VALID,93.2173,VALID,0,VALID,24.4062,VALID,81,VALID,0.355469,
2008-06-05, 01:35:04,VALID,1002.8,VALID,0,VALID,93.2402,VALID,0,VALID,24.4062,VALID,81,VALID,0.333984,
2008-06-05, 01:36:04,VALID,1002.8,VALID,0,VALID,93.1334,VALID,0,VALID,24.447,VALID,81,VALID,0.128125,
2008-06-05, 01:37:04,VALID,1002.81,VALID,0,VALID,93.0571,VALID,0,VALID,24.4257,VALID,81,VALID,0.3625,
2008-06-05, 01:38:04,VALID,1002.8,VALID,0,VALID,93.0418,VALID,0,VALID,24.447,VALID,83,VALID,0.374219,
2008-06-05, 01:39:04,VALID,1002.77,VALID,0,VALID,93.0113,VALID,0,VALID,24.4451,VALID,83,VALID,0.226172,
2008-06-05, 01:40:04,VALID,1002.75,VALID,0,VALID,92.9274,VALID,0,VALID,24.4451,VALID,83,VALID,0.339453,
2008-06-05, 01:41:04,VALID,1002.74,VALID,0,VALID,92.8282,VALID,0,VALID,24.4043,VALID,83,VALID,0.435937,
2008-06-05, 01:42:04,VALID,1002.71,VALID,0,VALID,92.8511,VALID,0,VALID,24.3867,VALID,81,VALID,0.261719,
2008-06-05, 01:43:04,VALID,1002.71,VALID,0,VALID,93.0113,VALID,0,VALID,24.3673,VALID,81,VALID,0.289844,
2008-06-05, 01:44:04,VALID,1002.68,VALID,0,VALID,93.0266,VALID,0,VALID,24.3283,VALID,81,VALID,0,
2008-06-05, 01:45:04,VALID,1002.69,VALID,0,VALID,93.0723,VALID,0,VALID,24.3088,VALID,81,VALID,0,
2008-06-05, 01:46:04,VALID,1002.68,VALID,0,VALID,93.3165,VALID,0,VALID,24.3088,VALID,83,VALID,0.698047,
2008-06-05, 01:47:04,VALID,1002.68,VALID,0,VALID,93.2707,VALID,0,VALID,24.3283,VALID,92,VALID,0.207813,
2008-06-05, 01:48:04,VALID,1002.65,VALID,0,VALID,93.1486,VALID,0,VALID,24.3088,VALID,92,VALID,0.00664063,
2008-06-05, 01:49:04,VALID,1002.71,VALID,0,VALID,93.1029,VALID,0,VALID,24.2504,VALID,92,VALID,0.290234,
2008-06-05, 01:50:04,VALID,1002.67,VALID,0,VALID,93.1563,VALID,0,VALID,24.2097,VALID,92,VALID,0.0386719,
2008-06-05, 01:51:04,VALID,1002.65,VALID,0,VALID,93.2859,VALID,0,VALID,24.2115,VALID,92,VALID,0.0140625,
2008-06-05, 01:52:04,VALID,1002.67,VALID,0,VALID,93.2707,VALID,0,VALID,24.1726,VALID,92,VALID,0,
2008-06-05, 01:53:04,VALID,1002.67,VALID,0,VALID,93.2631,VALID,0,VALID,24.1531,VALID,92,VALID,0,
2008-06-05, 01:54:04,VALID,1002.68,VALID,0,VALID,93.4767,VALID,0,VALID,24.1336,VALID,92,VALID,0.317969,
2008-06-05, 01:55:04,VALID,1002.68,VALID,0,VALID,93.6064,VALID,0,VALID,24.1318,VALID,92,VALID,0.249609,
2008-06-05, 01:56:04,VALID,1002.68,VALID,0,VALID,93.7361,VALID,0,VALID,24.1726,VALID,52,VALID,0.430859,
2008-06-05, 01:57:04,VALID,1002.71,VALID,0,VALID,93.82,VALID,0,VALID,24.2115,VALID,52,VALID,0.394922,
2008-06-05, 01:58:04,VALID,1002.71,VALID,0,VALID,93.8505,VALID,0,VALID,24.2115,VALID,52,VALID,0.239063,
2008-06-05, 01:59:04,VALID,1002.72,VALID,0,VALID,93.8123,VALID,0,VALID,24.2504,VALID,52,VALID,0.223438,
2008-06-05, 02:00:04,VALID,1002.69,VALID,0,VALID,93.7971,VALID,0,VALID,24.2504,VALID,52,VALID,0.0328125,
2008-06-05, 02:01:04,VALID,1002.68,VALID,0,VALID,93.7361,VALID,0,VALID,24.2912,VALID,52,VALID,0.337109,
2008-06-05, 02:02:04,VALID,1002.72,VALID,0,VALID,93.5911,VALID,0,VALID,24.3107,VALID,52,VALID,0.379297,
2008-06-05, 02:03:04,VALID,1002.7,VALID,0,VALID,93.4843,VALID,0,VALID,24.2699,VALID,52,VALID,0.196875,
2008-06-05, 02:04:04,VALID,1002.69,VALID,0,VALID,93.4538,VALID,0,VALID,24.2504,VALID,52,VALID,0.350781,
2008-06-05, 02:05:04,VALID,1002.7,VALID,0,VALID,93.4462,VALID,0,VALID,24.2097,VALID,52,VALID,0.270312,
2008-06-05, 02:06:04,VALID,1002.72,VALID,0,VALID,93.553,VALID,0,VALID,24.2115,VALID,52,VALID,0.238281,
2008-06-05, 02:07:04,VALID,1002.74,VALID,0,VALID,93.5606,VALID,0,VALID,24.2328,VALID,52,VALID,0.442969,
2008-06-05, 02:08:04,VALID,1002.7,VALID,0,VALID,93.6216,VALID,0,VALID,24.1707,VALID,52,VALID,0.456641,
2008-06-05, 02:09:04,VALID,1002.72,VALID,0,VALID,93.6903,VALID,0,VALID,24.192,VALID,52,VALID,0,
2008-06-05, 02:10:04,VALID,1002.75,VALID,0,VALID,93.6521,VALID,0,VALID,24.1726,VALID,52,VALID,0.279297,
2008-06-05, 02:11:04,VALID,1002.73,VALID,0,VALID,93.6216,VALID,0,VALID,24.1531,VALID,44,VALID,0.526172,
2008-06-05, 02:12:04,VALID,1002.74,VALID,0,VALID,93.7818,VALID,0,VALID,24.1336,VALID,39,VALID,0.459766,
2008-06-05, 02:13:04,VALID,1002.71,VALID,0,VALID,93.7437,VALID,0,VALID,24.1336,VALID,36,VALID,0.470313,
2008-06-05, 02:14:04,VALID,1002.69,VALID,0,VALID,93.7208,VALID,0,VALID,24.1355,VALID,26,VALID,0.568359,
2008-06-05, 02:15:04,VALID,1002.68,VALID,0,VALID,93.675,VALID,0,VALID,24.0947,VALID,25,VALID,0.428125,
2008-06-05, 02:16:04,VALID,1002.7,VALID,0,VALID,93.7895,VALID,0,VALID,24.0752,VALID,20,VALID,0.569531,
2008-06-05, 02:17:04,VALID,1002.69,VALID,0,VALID,93.942,VALID,0,VALID,24.0752,VALID,19,VALID,0.465625,
2008-06-05, 02:18:04,VALID,1002.68,VALID,0,VALID,93.9878,VALID,0,VALID,24.0752,VALID,19,VALID,0.389453,
2008-06-05, 02:19:04,VALID,1002.66,VALID,0,VALID,93.8734,VALID,0,VALID,24.0947,VALID,19,VALID,0.544531,
2008-06-05, 02:20:04,VALID,1002.63,VALID,0,VALID,93.9573,VALID,0,VALID,24.0752,VALID,16,VALID,0.516797,
2008-06-05, 02:21:04,VALID,1002.63,VALID,0,VALID,93.82,VALID,0,VALID,24.0557,VALID,16,VALID,0.193359,
2008-06-05, 02:22:04,VALID,1002.63,VALID,0,VALID,93.7437,VALID,0,VALID,24.0168,VALID,16,VALID,0.4875,
2008-06-05, 02:23:04,VALID,1002.64,VALID,0,VALID,93.7666,VALID,0,VALID,23.9973,VALID,16,VALID,0.525391,
2008-06-05, 02:24:04,VALID,1002.64,VALID,0,VALID,93.8734,VALID,0,VALID,23.9779,VALID,16,VALID,0.393359,
2008-06-05, 02:25:04,VALID,1002.67,VALID,0,VALID,93.9725,VALID,0,VALID,23.9371,VALID,16,VALID,0.336328,
2008-06-05, 02:26:04,VALID,1002.67,VALID,0,VALID,94.087,VALID,0,VALID,23.9389,VALID,16,VALID,0.308594,
2008-06-05, 02:27:04,VALID,1002.64,VALID,0,VALID,94.2472,VALID,0,VALID,23.9389,VALID,16,VALID,0.398047,
2008-06-05, 02:28:04,VALID,1002.63,VALID,0,VALID,94.3158,VALID,0,VALID,23.9584,VALID,16,VALID,0.451562,
2008-06-05, 02:29:04,VALID,1002.65,VALID,0,VALID,94.4684,VALID,0,VALID,23.9973,VALID,13,VALID,0.305469,
2008-06-05, 02:30:04,VALID,1002.64,VALID,0,VALID,94.4989,VALID,0,VALID,23.9973,VALID,13,VALID,0.636719,
2008-06-05, 02:31:04,VALID,1002.64,VALID,0,VALID,94.5676,VALID,0,VALID,23.9761,VALID,4,VALID,0.640234,
2008-06-05, 02:32:04,VALID,1002.65,VALID,0,VALID,94.6363,VALID,0,VALID,24.0168,VALID,4,VALID,0.559375,
2008-06-05, 02:33:04,VALID,1002.62,VALID,0,VALID,94.766,VALID,0,VALID,24.0363,VALID,1,VALID,0.764844,
2008-06-05, 02:34:04,VALID,1002.62,VALID,0,VALID,94.7583,VALID,0,VALID,24.0557,VALID,359,VALID,0.429688,
2008-06-05, 02:35:04,VALID,1002.62,VALID,0,VALID,94.766,VALID,0,VALID,24.0345,VALID,359,VALID,0.535156,
2008-06-05, 02:36:04,VALID,1002.61,VALID,0,VALID,94.7736,VALID,0,VALID,24.0539,VALID,359,VALID,0.290625,
2008-06-05, 02:37:04,VALID,1002.59,VALID,0,VALID,94.8194,VALID,0,VALID,24.0947,VALID,359,VALID,0.221875,
2008-06-05, 02:38:04,VALID,1002.58,VALID,0,VALID,94.7736,VALID,0,VALID,24.0734,VALID,359,VALID,0.278906,
2008-06-05, 02:39:04,VALID,1002.55,VALID,0,VALID,94.8041,VALID,0,VALID,24.0734,VALID,359,VALID,0.192188,
2008-06-05, 02:40:04,VALID,1002.54,VALID,0,VALID,94.8422,VALID,0,VALID,24.0947,VALID,359,VALID,0.360547,
2008-06-05, 02:41:04,VALID,1002.54,VALID,0,VALID,94.888,VALID,0,VALID,24.1336,VALID,359,VALID,0.336719,
2008-06-05, 02:42:04,VALID,1002.55,VALID,0,VALID,94.8422,VALID,0,VALID,24.1123,VALID,359,VALID,0.397266,
2008-06-05, 02:43:04,VALID,1002.55,VALID,0,VALID,94.7812,VALID,0,VALID,24.1531,VALID,359,VALID,0.369922,
2008-06-05, 02:44:04,VALID,1002.58,VALID,0,VALID,94.7812,VALID,0,VALID,24.1123,VALID,359,VALID,0.471094,
2008-06-05, 02:45:04,VALID,1002.58,VALID,0,VALID,94.7812,VALID,0,VALID,24.1336,VALID,359,VALID,0.502734,
2008-06-05, 02:46:04,VALID,1002.57,VALID,0,VALID,94.7583,VALID,0,VALID,24.1142,VALID,359,VALID,0.595312,
2008-06-05, 02:47:04,VALID,1002.57,VALID,0,VALID,94.7583,VALID,0,VALID,24.0734,VALID,359,VALID,0.477344,
2008-06-05, 02:48:04,VALID,1002.57,VALID,0,VALID,94.9185,VALID,0,VALID,24.1142,VALID,359,VALID,0.350391,
2008-06-05, 02:49:04,VALID,1002.57,VALID,0,VALID,94.9109,VALID,0,VALID,24.1142,VALID,359,VALID,0.190625,
2008-06-05, 02:50:04,VALID,1002.59,VALID,0,VALID,94.8651,VALID,0,VALID,24.0929,VALID,359,VALID,0.009375,
2008-06-05, 02:51:04,VALID,1002.57,VALID,0,VALID,94.888,VALID,0,VALID,24.1142,VALID,359,VALID,0.269531,
2008-06-05, 02:52:04,VALID,1002.55,VALID,0,VALID,94.8728,VALID,0,VALID,24.1142,VALID,359,VALID,0.257422,
2008-06-05, 02:53:04,VALID,1002.55,VALID,0,VALID,94.8575,VALID,0,VALID,24.0947,VALID,359,VALID,0.508203,
2008-06-05, 02:54:04,VALID,1002.5,VALID,0,VALID,94.8651,VALID,0,VALID,24.0947,VALID,359,VALID,0.414844,
2008-06-05, 02:55:04,VALID,1002.48,VALID,0,VALID,94.8651,VALID,0,VALID,24.0947,VALID,359,VALID,0.421875,
2008-06-05, 02:56:04,VALID,1002.48,VALID,0,VALID,94.9872,VALID,0,VALID,24.0947,VALID,359,VALID,0.224219,
2008-06-05, 02:57:04,VALID,1002.5,VALID,0,VALID,94.827,VALID,0,VALID,24.0734,VALID,359,VALID,0.277734,
2008-06-05, 02:58:04,VALID,1002.47,VALID,0,VALID,94.6897,VALID,0,VALID,24.0557,VALID,359,VALID,0.479297,
2008-06-05, 02:59:04,VALID,1002.48,VALID,0,VALID,94.682,VALID,0,VALID,24.0168,VALID,359,VALID,0.572266,
2008-06-05, 03:00:04,VALID,1002.47,VALID,0,VALID,94.7049,VALID,0,VALID,23.9973,VALID,359,VALID,0.564453,
2008-06-05, 03:01:04,VALID,1002.45,VALID,0,VALID,94.7049,VALID,0,VALID,23.9779,VALID,359,VALID,0.534766,
2008-06-05, 03:02:04,VALID,1002.46,VALID,0,VALID,94.949,VALID,0,VALID,23.9566,VALID,359,VALID,0.347266,
2008-06-05, 03:03:04,VALID,1002.44,VALID,0,VALID,95.155,VALID,0,VALID,24.0168,VALID,359,VALID,0.438672,
2008-06-05, 03:04:04,VALID,1002.44,VALID,0,VALID,95.1855,VALID,0,VALID,24.0345,VALID,359,VALID,0.491016,
2008-06-05, 03:05:04,VALID,1002.42,VALID,0,VALID,95.0787,VALID,0,VALID,24.0557,VALID,359,VALID,0.55625,
2008-06-05, 03:06:04,VALID,1002.41,VALID,0,VALID,95.094,VALID,0,VALID,24.0557,VALID,359,VALID,0.272656,
2008-06-05, 03:07:04,VALID,1002.39,VALID,0,VALID,95.1016,VALID,0,VALID,24.0557,VALID,359,VALID,0.490234,
2008-06-05, 03:08:04,VALID,1002.45,VALID,0,VALID,95.033,VALID,0,VALID,24.0345,VALID,359,VALID,0.560547,
2008-06-05, 03:09:04,VALID,1002.41,VALID,0,VALID,95.0558,VALID,0,VALID,24.0363,VALID,359,VALID,0.590234,
2008-06-05, 03:10:04,VALID,1002.43,VALID,0,VALID,95.0558,VALID,0,VALID,24.0363,VALID,359,VALID,0.603906,
2008-06-05, 03:11:04,VALID,1002.43,VALID,0,VALID,95.0711,VALID,0,VALID,24.015,VALID,359,VALID,0.662109,
2008-06-05, 03:12:04,VALID,1002.44,VALID,0,VALID,95.1932,VALID,0,VALID,24.0557,VALID,359,VALID,0.662891,
2008-06-05, 03:13:04,VALID,1002.44,VALID,0,VALID,95.1245,VALID,0,VALID,24.0363,VALID,359,VALID,0.478906,
2008-06-05, 03:14:04,VALID,1002.43,VALID,0,VALID,95.155,VALID,0,VALID,24.0557,VALID,359,VALID,0.34375,
2008-06-05, 03:15:04,VALID,1002.38,VALID,0,VALID,95.0711,VALID,0,VALID,24.015,VALID,359,VALID,0.292578,
2008-06-05, 03:16:04,VALID,1002.38,VALID,0,VALID,95.0787,VALID,0,VALID,24.0168,VALID,359,VALID,0.214453,
2008-06-05, 03:17:04,VALID,1002.38,VALID,0,VALID,95.0558,VALID,0,VALID,23.9973,VALID,359,VALID,0.261328,
2008-06-05, 03:18:04,VALID,1002.4,VALID,0,VALID,95.0787,VALID,0,VALID,23.9761,VALID,359,VALID,0.239063,
2008-06-05, 03:19:04,VALID,1002.37,VALID,0,VALID,95.0635,VALID,0,VALID,23.9566,VALID,359,VALID,0.312891,
2008-06-05, 03:20:04,VALID,1002.37,VALID,0,VALID,95.0787,VALID,0,VALID,23.9584,VALID,359,VALID,0.147656,
2008-06-05, 03:21:04,VALID,1002.37,VALID,0,VALID,95.0864,VALID,0,VALID,23.9389,VALID,359,VALID,0.0117188,
2008-06-05, 03:22:04,VALID,1002.35,VALID,0,VALID,95.0864,VALID,0,VALID,23.9389,VALID,359,VALID,0.0273438,
2008-06-05, 03:23:04,VALID,1002.34,VALID,0,VALID,95.1627,VALID,0,VALID,23.9389,VALID,359,VALID,0.301562,
2008-06-05, 03:24:04,VALID,1002.35,VALID,0,VALID,95.2695,VALID,0,VALID,23.9566,VALID,359,VALID,0.323828,
2008-06-05, 03:25:04,VALID,1002.32,VALID,0,VALID,95.3763,VALID,0,VALID,23.9955,VALID,359,VALID,0.479688,
2008-06-05, 03:26:04,VALID,1002.32,VALID,0,VALID,95.3839,VALID,0,VALID,24.0363,VALID,359,VALID,0.160547,
2008-06-05, 03:27:04,VALID,1002.3,VALID,0,VALID,95.3457,VALID,0,VALID,24.0557,VALID,359,VALID,0,
2008-06-05, 03:28:04,VALID,1002.31,VALID,0,VALID,95.3,VALID,0,VALID,24.0557,VALID,359,VALID,0.25,
2008-06-05, 03:29:04,VALID,1002.3,VALID,0,VALID,95.2771,VALID,0,VALID,24.0557,VALID,359,VALID,0.495313,
2008-06-05, 03:30:04,VALID,1002.32,VALID,0,VALID,95.3229,VALID,0,VALID,24.0734,VALID,360,VALID,0.460547,
2008-06-05, 03:31:04,VALID,1002.3,VALID,0,VALID,95.3839,VALID,0,VALID,24.1142,VALID,3,VALID,0.305859,
2008-06-05, 03:32:04,VALID,1002.3,VALID,0,VALID,95.3305,VALID,0,VALID,24.1336,VALID,3,VALID,0.158984,
2008-06-05, 03:33:04,VALID,1002.31,VALID,0,VALID,95.3381,VALID,0,VALID,24.1531,VALID,3,VALID,0.149609,
2008-06-05, 03:34:04,VALID,1002.32,VALID,0,VALID,95.3229,VALID,0,VALID,24.1726,VALID,4,VALID,0.243359,
2008-06-05, 03:35:04,VALID,1002.32,VALID,0,VALID,95.3305,VALID,0,VALID,24.1707,VALID,4,VALID,0.297266,
2008-06-05, 03:36:04,VALID,1002.32,VALID,0,VALID,95.3076,VALID,0,VALID,24.231,VALID,4,VALID,0.433984,
2008-06-05, 03:37:04,VALID,1002.33,VALID,0,VALID,95.2084,VALID,0,VALID,24.2504,VALID,4,VALID,0.198047,
2008-06-05, 03:38:04,VALID,1002.33,VALID,0,VALID,95.1474,VALID,0,VALID,24.2291,VALID,4,VALID,0.139062,
2008-06-05, 03:39:04,VALID,1002.42,VALID,0,VALID,95.1245,VALID,0,VALID,24.2699,VALID,4,VALID,0.0460938,
2008-06-05, 03:40:04,VALID,1002.54,VALID,0,VALID,95.0787,VALID,0,VALID,24.2875,VALID,4,VALID,0.102344,
2008-06-05, 03:41:04,VALID,1001.4,VALID,0,VALID,95.1016,VALID,0,VALID,24.3265,VALID,4,VALID,0.411719,
2008-06-05, 03:42:04,VALID,1001.71,VALID,0,VALID,95.033,VALID,0,VALID,24.3265,VALID,5,VALID,0.453906,
2008-06-05, 06:18:04,VALID,1003.33,VALID,0,VALID,94.7507,VALID,32.5824,VALID,24.2857,VALID,33,VALID,0.428125,
2008-06-05, 06:19:04,VALID,1003.31,VALID,0,VALID,94.621,VALID,33.3869,VALID,24.3459,VALID,33,VALID,0.414844,
2008-06-05, 06:20:04,VALID,1003.35,VALID,0,VALID,94.5295,VALID,34.1914,VALID,24.3849,VALID,33,VALID,0.45625,
2008-06-05, 06:21:04,VALID,1003.35,VALID,0,VALID,94.4303,VALID,35.0965,VALID,24.4628,VALID,33,VALID,0.490625,